| time (UTC) | temp F | wind direction | speed MPH | gust MPH | rain 1hr in | rain 24hr in | rain mn in | humidity % | barometer mb |
| 20260507091144 | 43 | 156 | 0.0 | 0.0 | 0.00 | 0.00 | 0.00 | 89 | 1020.6 |
| 20260507090640 | 44 | 156 | 0.0 | 0.0 | 0.00 | 0.00 | 0.00 | 88 | 1020.2 |
| 20260507090137 | 44 | 187 | 0.0 | 0.0 | 0.00 | 0.00 | 0.00 | 88 | 1020.3 |
| 20260507085634 | 44 | 135 | 0.0 | 0.0 | 0.00 | 0.00 | 0.00 | 87 | 1020.1 |
| 20260507085131 | 44 | 135 | 0.0 | 0.0 | 0.00 | 0.00 | 0.00 | 87 | 1020.0 |
| 20260507084628 | 44 | 121 | 0.0 | 0.0 | 0.00 | 0.00 | 0.00 | 87 | 1020.1 |
| 20260507084124 | 44 | 125 | 0.0 | 0.0 | 0.00 | 0.00 | 0.00 | 88 | 1020.2 |
| 20260507083621 | 44 | 125 | 0.0 | 0.0 | 0.00 | 0.00 | 0.00 | 87 | 1020.4 |
| 20260507083118 | 44 | 137 | 0.0 | 0.0 | 0.00 | 0.00 | 0.00 | 87 | 1019.9 |
| 20260507082614 | 44 | 137 | 0.0 | 0.0 | 0.00 | 0.00 | 0.00 | 86 | 1020.0 |
| 20260507082111 | 45 | 138 | 0.0 | 0.0 | 0.00 | 0.00 | 0.00 | 86 | 1020.3 |
| 20260507081607 | 45 | 172 | 0.0 | 0.0 | 0.00 | 0.00 | 0.00 | 85 | 1020.5 |
| 20260507081104 | 46 | 144 | 0.0 | 0.0 | 0.00 | 0.00 | 0.00 | 84 | 1020.3 |
| 20260507080600 | 46 | 127 | 0.0 | 0.0 | 0.00 | 0.00 | 0.00 | 83 | 1020.5 |
| 20260507080056 | 46 | 125 | 0.0 | 0.0 | 0.00 | 0.00 | 0.00 | 83 | 1020.1 |
| 20260507075551 | 46 | 117 | 0.0 | 0.0 | 0.00 | 0.00 | 0.00 | 82 | 1020.3 |
| 20260507075048 | 47 | 120 | 0.0 | 0.0 | 0.00 | 0.00 | 0.00 | 82 | 1020.1 |
| 20260507074545 | 47 | 120 | 0.0 | 0.0 | 0.00 | 0.00 | 0.00 | 81 | 1020.1 |
| 20260507074043 | 47 | 118 | 0.0 | 0.0 | 0.00 | 0.00 | 0.00 | 81 | 1020.3 |
| 20260507073539 | 47 | 82 | 0.0 | 0.0 | 0.00 | 0.00 | 0.00 | 81 | 1020.5 |
| 20260507073036 | 47 | 121 | 0.0 | 0.0 | 0.00 | 0.00 | 0.00 | 82 | 1020.8 |
| 20260507072533 | 46 | 115 | 0.0 | 0.0 | 0.00 | 0.00 | 0.00 | 82 | 1020.4 |
| 20260507072030 | 46 | 109 | 0.0 | 0.0 | 0.00 | 0.00 | 0.00 | 83 | 1020.4 |
| 20260507071528 | 46 | 123 | 0.0 | 0.0 | 0.00 | 0.00 | 0.00 | 83 | 1020.4 |
| 20260507071024 | 45 | 138 | 0.0 | 0.0 | 0.00 | 0.00 | 0.00 | 83 | 1020.4 |
| 20260507070521 | 46 | 122 | 0.0 | 0.0 | 0.00 | 0.00 | 0.00 | 81 | 1020.5 |
| 20260507070018 | 46 | 123 | 0.0 | 0.0 | 0.00 | 0.00 | 0.00 | 81 | 1020.4 |
| 20260507065514 | 46 | 127 | 0.0 | 0.0 | 0.00 | 0.00 | 0.00 | 81 | 1020.3 |
| 20260507065012 | 46 | 149 | 0.0 | 0.0 | 0.00 | 0.00 | 0.00 | 81 | 1020.1 |
| 20260507064510 | 46 | 149 | 0.0 | 0.0 | 0.00 | 0.00 | 0.00 | 80 | 1020.1 |
| 20260507064008 | 46 | 151 | 0.0 | 0.0 | 0.00 | 0.00 | 0.00 | 77 | 1020.3 |
| 20260507063504 | 47 | 152 | 0.0 | 0.0 | 0.00 | 0.00 | 0.00 | 77 | 1020.4 |
| 20260507063002 | 48 | 153 | 0.0 | 0.0 | 0.00 | 0.00 | 0.00 | 76 | 1020.3 |
| 20260507062459 | 48 | 158 | 0.0 | 0.0 | 0.00 | 0.00 | 0.00 | 76 | 1020.3 |
| 20260507061956 | 48 | 121 | 0.0 | 0.0 | 0.00 | 0.00 | 0.00 | 75 | 1020.2 |
| 20260507061454 | 48 | 128 | 0.0 | 0.0 | 0.00 | 0.00 | 0.00 | 76 | 1020.5 |
| 20260507060952 | 48 | 121 | 0.0 | 0.0 | 0.00 | 0.00 | 0.00 | 74 | 1021.0 |
| 20260507060449 | 49 | 120 | 0.0 | 0.0 | 0.00 | 0.00 | 0.00 | 72 | 1021.0 |
| 20260507055945 | 50 | 115 | 0.0 | 0.0 | 0.00 | 0.00 | 0.00 | 71 | 1021.0 |
| 20260507055440 | 50 | 122 | 0.0 | 0.0 | 0.00 | 0.00 | 0.00 | 70 | 1021.2 |
| 20260507054937 | 50 | 104 | 0.0 | 0.0 | 0.00 | 0.00 | 0.00 | 70 | 1021.1 |
| 20260507054433 | 50 | 117 | 0.0 | 0.0 | 0.00 | 0.00 | 0.00 | 69 | 1021.0 |
| 20260507053931 | 50 | 117 | 0.0 | 0.0 | 0.00 | 0.00 | 0.00 | 69 | 1021.0 |
| 20260507053428 | 50 | 119 | 0.0 | 0.0 | 0.00 | 0.00 | 0.00 | 69 | 1021.0 |
| 20260507052927 | 50 | 109 | 0.0 | 0.0 | 0.00 | 0.00 | 0.00 | 69 | 1021.1 |
| 20260507052424 | 50 | 130 | 0.0 | 0.0 | 0.00 | 0.00 | 0.00 | 70 | 1021.0 |
| 20260507051921 | 50 | 142 | 0.0 | 0.0 | 0.00 | 0.00 | 0.00 | 69 | 1020.9 |
| 20260507051418 | 51 | 143 | 0.0 | 0.0 | 0.00 | 0.00 | 0.00 | 67 | 1020.5 |
| 20260507050915 | 51 | 143 | 0.0 | 0.0 | 0.00 | 0.00 | 0.00 | 66 | 1020.6 |
| 20260507050411 | 51 | 127 | 0.0 | 0.0 | 0.00 | 0.00 | 0.00 | 65 | 1020.8 |
| 20260507045908 | 52 | 136 | 0.0 | 0.0 | 0.00 | 0.00 | 0.00 | 64 | 1020.8 |
| 20260507045404 | 52 | 116 | 0.0 | 0.0 | 0.00 | 0.00 | 0.00 | 63 | 1020.8 |
| 20260507044857 | 52 | 117 | 0.0 | 0.0 | 0.00 | 0.00 | 0.00 | 62 | 1020.8 |
| 20260507044353 | 53 | 121 | 0.0 | 0.0 | 0.00 | 0.00 | 0.00 | 61 | 1020.8 |
| 20260507043849 | 53 | 118 | 0.0 | 0.0 | 0.00 | 0.00 | 0.00 | 60 | 1020.5 |
| 20260507043345 | 54 | 108 | 0.0 | 2.0 | 0.00 | 0.00 | 0.00 | 59 | 1020.5 |
| 20260507042842 | 54 | 38 | 3.0 | 3.0 | 0.00 | 0.00 | 0.00 | 59 | 1020.3 |
| 20260507042337 | 54 | 72 | 1.0 | 1.0 | 0.00 | 0.00 | 0.00 | 58 | 1020.2 |
| 20260507041829 | 54 | 89 | 2.0 | 6.0 | 0.00 | 0.00 | 0.00 | 58 | 1019.5 |
| 20260507041325 | 54 | 94 | 2.0 | 3.0 | 0.00 | 0.00 | 0.00 | 58 | 1019.6 |
| 20260507040823 | 55 | 118 | 0.0 | 2.0 | 0.00 | 0.00 | 0.00 | 58 | 1019.9 |
| 20260507040319 | 55 | 56 | 3.0 | 4.0 | 0.00 | 0.00 | 0.00 | 57 | 1019.5 |
| 20260507035815 | 55 | 51 | 2.0 | 4.0 | 0.00 | 0.00 | 0.00 | 58 | 1019.3 |
| 20260507035310 | 54 | 90 | 3.0 | 3.0 | 0.00 | 0.00 | 0.00 | 58 | 1019.5 |
| 20260507034809 | 55 | 83 | 1.0 | 2.0 | 0.00 | 0.00 | 0.00 | 58 | 1019.5 |
| 20260507034305 | 55 | 83 | 1.0 | 3.0 | 0.00 | 0.00 | 0.00 | 58 | 1019.8 |
| 20260507033803 | 55 | 49 | 1.0 | 2.0 | 0.00 | 0.00 | 0.00 | 58 | 1019.8 |
| 20260507033301 | 54 | 93 | 1.0 | 2.0 | 0.00 | 0.00 | 0.00 | 59 | 1019.8 |
| 20260507032757 | 54 | 96 | 0.0 | 1.0 | 0.00 | 0.00 | 0.00 | 60 | 1019.9 |
| 20260507032253 | 54 | 117 | 0.0 | 0.0 | 0.00 | 0.00 | 0.00 | 61 | 1019.7 |
| 20260507031750 | 54 | 93 | 0.0 | 1.0 | 0.00 | 0.00 | 0.00 | 60 | 1019.7 |
| 20260507031247 | 55 | 104 | 0.0 | 0.0 | 0.00 | 0.00 | 0.00 | 60 | 1019.8 |
| 20260507030744 | 55 | 71 | 0.0 | 1.0 | 0.00 | 0.00 | 0.00 | 60 | 1019.4 |
| 20260507030241 | 55 | 120 | 0.0 | 0.0 | 0.00 | 0.00 | 0.00 | 59 | 1019.4 |
| 20260507025738 | 55 | 127 | 0.0 | 0.0 | 0.00 | 0.00 | 0.00 | 59 | 1019.4 |
| 20260507025235 | 55 | 125 | 0.0 | 1.0 | 0.00 | 0.00 | 0.00 | 58 | 1019.1 |
| 20260507024734 | 55 | 134 | 0.0 | 0.0 | 0.00 | 0.00 | 0.00 | 58 | 1019.0 |
| 20260507024231 | 56 | 117 | 0.0 | 1.0 | 0.00 | 0.00 | 0.00 | 57 | 1019.1 |
| 20260507023726 | 56 | 117 | 0.0 | 0.0 | 0.00 | 0.00 | 0.00 | 56 | 1019.0 |
| 20260507023223 | 57 | 106 | 0.0 | 1.0 | 0.00 | 0.00 | 0.00 | 56 | 1019.0 |
| 20260507022720 | 57 | 100 | 0.0 | 2.0 | 0.00 | 0.00 | 0.00 | 55 | 1019.1 |
| 20260507022216 | 57 | 121 | 0.0 | 2.0 | 0.00 | 0.00 | 0.00 | 55 | 1018.9 |
| 20260507021713 | 57 | 91 | 0.0 | 1.0 | 0.00 | 0.00 | 0.00 | 54 | 1018.9 |
| 20260507021208 | 58 | 57 | 1.0 | 1.0 | 0.00 | 0.00 | 0.00 | 53 | 1018.8 |
| 20260507020707 | 58 | 106 | 0.0 | 3.0 | 0.00 | 0.00 | 0.00 | 52 | 1018.7 |
| 20260507020202 | 59 | 109 | 0.0 | 2.0 | 0.00 | 0.00 | 0.00 | 52 | 1018.5 |
| 20260507015701 | 59 | 63 | 0.0 | 3.0 | 0.00 | 0.00 | 0.00 | 51 | 1018.5 |
| 20260507015158 | 59 | 95 | 1.0 | 3.0 | 0.00 | 0.00 | 0.00 | 50 | 1018.4 |
| 20260507014654 | 60 | 75 | 3.0 | 8.0 | 0.00 | 0.00 | 0.00 | 50 | 1018.5 |
| 20260507014150 | 60 | 68 | 0.0 | 3.0 | 0.00 | 0.00 | 0.00 | 49 | 1018.2 |
| 20260507013647 | 60 | 60 | 1.0 | 4.0 | 0.00 | 0.00 | 0.00 | 49 | 1018.3 |
| 20260507013144 | 60 | 76 | 2.0 | 3.0 | 0.00 | 0.00 | 0.00 | 49 | 1018.2 |
| 20260507012642 | 61 | 80 | 3.0 | 4.0 | 0.00 | 0.00 | 0.00 | 48 | 1018.2 |
| 20260507012137 | 61 | 80 | 1.0 | 7.0 | 0.00 | 0.00 | 0.00 | 48 | 1018.4 |
| 20260507011636 | 61 | 122 | 3.0 | 4.0 | 0.00 | 0.00 | 0.00 | 47 | 1018.5 |
| 20260507011131 | 61 | 2 | 2.0 | 7.0 | 0.00 | 0.00 | 0.00 | 47 | 1018.2 |
| 20260507010626 | 61 | 48 | 5.0 | 9.0 | 0.00 | 0.00 | 0.00 | 47 | 1018.1 |
| 20260507010122 | 62 | 69 | 1.0 | 3.0 | 0.00 | 0.00 | 0.00 | 47 | 1018.1 |
| 20260507005620 | 62 | 88 | 1.0 | 6.0 | 0.00 | 0.00 | 0.00 | 47 | 1018.0 |
| 20260507005116 | 62 | 79 | 4.0 | 6.0 | 0.00 | 0.00 | 0.00 | 46 | 1018.0 |
| 20260507004613 | 62 | 82 | 1.0 | 3.0 | 0.00 | 0.00 | 0.00 | 47 | 1018.0 |
| 20260507004110 | 62 | 43 | 5.0 | 8.0 | 0.00 | 0.00 | 0.00 | 46 | 1018.0 |
| 20260507003606 | 63 | 52 | 2.0 | 6.0 | 0.00 | 0.00 | 0.00 | 46 | 1017.9 |
| 20260507003101 | 63 | 26 | 1.0 | 2.0 | 0.00 | 0.00 | 0.00 | 46 | 1017.8 |
| 20260507002558 | 63 | 118 | 0.0 | 3.0 | 0.00 | 0.00 | 0.00 | 46 | 1017.7 |
| 20260507002054 | 63 | 38 | 1.0 | 6.0 | 0.00 | 0.00 | 0.00 | 46 | 1017.8 |
| 20260507001551 | 63 | 42 | 1.0 | 7.0 | 0.00 | 0.00 | 0.00 | 46 | 1017.9 |
| 20260507001048 | 63 | 90 | 0.0 | 6.0 | 0.00 | 0.00 | 0.00 | 46 | 1017.7 |
| 20260507000544 | 64 | 45 | 2.0 | 6.0 | 0.00 | 0.00 | 0.00 | 45 | 1017.5 |
| 20260507000040 | 64 | 58 | 2.0 | 4.0 | 0.00 | 0.00 | 0.00 | 44 | 1017.7 |
| 20260506235538 | 64 | 112 | 1.0 | 7.0 | 0.00 | 0.00 | 0.00 | 45 | 1017.5 |
| 20260506235033 | 64 | 69 | 1.0 | 2.0 | 0.00 | 0.00 | 0.00 | 46 | 1017.4 |
| 20260506234531 | 64 | 36 | 3.0 | 7.0 | 0.00 | 0.00 | 0.00 | 45 | 1017.2 |
| 20260506234028 | 65 | 49 | 2.0 | 3.0 | 0.00 | 0.00 | 0.00 | 44 | 1017.5 |
| 20260506233524 | 65 | 29 | 2.0 | 3.0 | 0.00 | 0.00 | 0.00 | 44 | 1017.4 |
| 20260506233016 | 65 | 343 | 3.0 | 9.0 | 0.00 | 0.00 | 0.00 | 44 | 1017.2 |
| 20260506232512 | 65 | 320 | 2.0 | 4.0 | 0.00 | 0.00 | 0.00 | 44 | 1017.1 |
| 20260506232007 | 64 | 30 | 2.0 | 6.0 | 0.00 | 0.00 | 0.00 | 44 | 1017.3 |
| 20260506231505 | 65 | 75 | 2.0 | 6.0 | 0.00 | 0.00 | 0.00 | 44 | 1017.1 |
| 20260506231003 | 65 | 70 | 5.0 | 8.0 | 0.00 | 0.00 | 0.00 | 44 | 1017.0 |
| 20260506230458 | 64 | 322 | 1.0 | 4.0 | 0.00 | 0.00 | 0.00 | 44 | 1017.0 |
| 20260506225956 | 65 | 299 | 1.0 | 6.0 | 0.00 | 0.00 | 0.00 | 44 | 1017.0 |
| 20260506225453 | 65 | 44 | 2.0 | 8.0 | 0.00 | 0.00 | 0.00 | 43 | 1017.2 |
| 20260506224949 | 66 | 140 | 0.0 | 3.0 | 0.00 | 0.00 | 0.00 | 44 | 1016.9 |
| 20260506224446 | 64 | 292 | 1.0 | 7.0 | 0.00 | 0.00 | 0.00 | 44 | 1016.9 |
| 20260506223943 | 65 | 6 | 4.0 | 8.0 | 0.00 | 0.00 | 0.00 | 44 | 1016.8 |
| 20260506223439 | 66 | 94 | 2.0 | 7.0 | 0.00 | 0.00 | 0.00 | 43 | 1016.7 |
| 20260506222936 | 66 | 39 | 5.0 | 7.0 | 0.00 | 0.00 | 0.00 | 43 | 1016.6 |
| 20260506222432 | 65 | 49 | 4.0 | 7.0 | 0.00 | 0.00 | 0.00 | 44 | 1016.6 |
| 20260506221929 | 65 | 57 | 1.0 | 4.0 | 0.00 | 0.00 | 0.00 | 45 | 1016.7 |
| 20260506221426 | 65 | 70 | 6.0 | 9.0 | 0.00 | 0.00 | 0.00 | 44 | 1016.5 |
| 20260506220924 | 65 | 87 | 6.0 | 9.0 | 0.00 | 0.00 | 0.00 | 45 | 1016.5 |
| 20260506220419 | 66 | 73 | 6.0 | 9.0 | 0.00 | 0.00 | 0.00 | 43 | 1016.4 |
| 20260506215916 | 64 | 110 | 3.0 | 6.0 | 0.00 | 0.00 | 0.00 | 45 | 1016.6 |
| 20260506215412 | 65 | 52 | 6.0 | 8.0 | 0.00 | 0.00 | 0.00 | 44 | 1016.8 |
| 20260506214908 | 66 | 72 | 5.0 | 8.0 | 0.00 | 0.00 | 0.00 | 42 | 1016.7 |
| 20260506214405 | 67 | 98 | 4.0 | 7.0 | 0.00 | 0.00 | 0.00 | 43 | 1016.6 |
| 20260506213903 | 67 | 68 | 4.0 | 10.0 | 0.00 | 0.00 | 0.00 | 43 | 1016.6 |
| 20260506213401 | 66 | 27 | 3.0 | 10.0 | 0.00 | 0.00 | 0.00 | 43 | 1016.6 |
| 20260506212858 | 65 | 39 | 2.0 | 4.0 | 0.00 | 0.00 | 0.00 | 44 | 1016.7 |
| 20260506212353 | 65 | 51 | 5.0 | 11.0 | 0.00 | 0.00 | 0.00 | 44 | 1016.9 |
| 20260506211848 | 65 | 211 | 3.0 | 4.0 | 0.00 | 0.00 | 0.00 | 44 | 1016.8 |
| 20260506211345 | 64 | 73 | 3.0 | 9.0 | 0.00 | 0.00 | 0.00 | 47 | 1017.0 |
| 20260506210842 | 64 | 115 | 2.0 | 11.0 | 0.00 | 0.00 | 0.00 | 47 | 1016.9 |
| 20260506210339 | 65 | 62 | 2.0 | 6.0 | 0.00 | 0.00 | 0.00 | 47 | 1016.9 |
| 20260506205836 | 66 | 23 | 5.0 | 10.0 | 0.00 | 0.00 | 0.00 | 46 | 1017.0 |
| 20260506205332 | 64 | 87 | 3.0 | 8.0 | 0.00 | 0.00 | 0.00 | 48 | 1017.0 |
| 20260506204828 | 64 | 68 | 2.0 | 8.0 | 0.00 | 0.00 | 0.00 | 48 | 1017.3 |
| 20260506204326 | 66 | 219 | 3.0 | 7.0 | 0.00 | 0.00 | 0.00 | 46 | 1016.8 |
| 20260506203824 | 63 | 67 | 0.0 | 6.0 | 0.00 | 0.00 | 0.00 | 48 | 1017.1 |
| 20260506203321 | 63 | 95 | 2.0 | 10.0 | 0.00 | 0.00 | 0.00 | 49 | 1017.3 |
| 20260506202817 | 64 | 20 | 4.0 | 10.0 | 0.00 | 0.00 | 0.00 | 49 | 1017.4 |
| 20260506202315 | 64 | 44 | 1.0 | 8.0 | 0.00 | 0.00 | 0.00 | 49 | 1017.4 |
| 20260506201811 | 64 | 9 | 3.0 | 6.0 | 0.00 | 0.00 | 0.00 | 49 | 1017.7 |
| 20260506201309 | 63 | 207 | 1.0 | 6.0 | 0.00 | 0.00 | 0.00 | 50 | 1017.5 |
| 20260506200805 | 63 | 78 | 4.0 | 7.0 | 0.00 | 0.00 | 0.00 | 50 | 1017.5 |
| 20260506200301 | 62 | 61 | 1.0 | 7.0 | 0.00 | 0.00 | 0.00 | 51 | 1017.5 |
| 20260506195758 | 64 | 32 | 5.0 | 8.0 | 0.00 | 0.00 | 0.00 | 49 | 1017.7 |
| 20260506195255 | 63 | 84 | 6.0 | 9.0 | 0.00 | 0.00 | 0.00 | 50 | 1017.5 |
| 20260506194752 | 63 | 136 | 2.0 | 7.0 | 0.00 | 0.00 | 0.00 | 50 | 1017.8 |
| 20260506194248 | 63 | 45 | 4.0 | 6.0 | 0.00 | 0.00 | 0.00 | 50 | 1017.7 |
| 20260506193746 | 61 | 243 | 2.0 | 6.0 | 0.00 | 0.00 | 0.00 | 52 | 1017.9 |
| 20260506193242 | 61 | 127 | 5.0 | 9.0 | 0.00 | 0.00 | 0.00 | 52 | 1017.7 |
| 20260506192739 | 61 | 48 | 1.0 | 9.0 | 0.00 | 0.00 | 0.00 | 53 | 1017.9 |
| 20260506192236 | 60 | 38 | 4.0 | 6.0 | 0.00 | 0.00 | 0.00 | 53 | 1018.0 |
| 20260506191732 | 61 | 103 | 4.0 | 4.0 | 0.00 | 0.00 | 0.00 | 53 | 1017.9 |
| 20260506191229 | 61 | 44 | 2.0 | 6.0 | 0.00 | 0.00 | 0.00 | 52 | 1017.8 |
| 20260506190726 | 62 | 43 | 2.0 | 4.0 | 0.00 | 0.00 | 0.00 | 52 | 1018.0 |
| 20260506190222 | 61 | 332 | 3.0 | 6.0 | 0.00 | 0.00 | 0.00 | 53 | 1018.1 |
| 20260506185720 | 61 | 94 | 4.0 | 4.0 | 0.00 | 0.00 | 0.00 | 53 | 1018.3 |
| 20260506185216 | 60 | 93 | 2.0 | 9.0 | 0.00 | 0.00 | 0.00 | 53 | 1018.3 |
| 20260506184714 | 61 | 88 | 2.0 | 7.0 | 0.00 | 0.00 | 0.00 | 53 | 1018.1 |
| 20260506184211 | 61 | 58 | 3.0 | 7.0 | 0.00 | 0.00 | 0.00 | 53 | 1018.0 |
| 20260506183707 | 60 | 80 | 4.0 | 6.0 | 0.00 | 0.00 | 0.00 | 52 | 1018.3 |
| 20260506183203 | 60 | 85 | 4.0 | 7.0 | 0.00 | 0.00 | 0.00 | 53 | 1018.3 |
| 20260506182701 | 60 | 91 | 3.0 | 9.0 | 0.00 | 0.00 | 0.00 | 53 | 1018.2 |
| 20260506182157 | 61 | 69 | 6.0 | 8.0 | 0.00 | 0.00 | 0.00 | 53 | 1018.4 |
| 20260506181655 | 60 | 79 | 7.0 | 9.0 | 0.00 | 0.00 | 0.00 | 53 | 1018.4 |
| 20260506181152 | 61 | 90 | 4.0 | 11.0 | 0.00 | 0.00 | 0.00 | 52 | 1018.4 |
| 20260506180649 | 61 | 63 | 2.0 | 6.0 | 0.00 | 0.00 | 0.00 | 52 | 1018.6 |
| 20260506180145 | 61 | 47 | 4.0 | 6.0 | 0.00 | 0.00 | 0.00 | 53 | 1018.7 |
| 20260506175642 | 60 | 49 | 3.0 | 6.0 | 0.00 | 0.00 | 0.00 | 54 | 1018.5 |
| 20260506175139 | 60 | 87 | 8.0 | 10.0 | 0.00 | 0.00 | 0.00 | 52 | 1018.8 |
| 20260506174632 | 60 | 75 | 4.0 | 7.0 | 0.00 | 0.00 | 0.00 | 54 | 1018.7 |
| 20260506174128 | 61 | 41 | 5.0 | 6.0 | 0.00 | 0.00 | 0.00 | 52 | 1018.5 |
| 20260506173626 | 60 | 28 | 3.0 | 7.0 | 0.00 | 0.00 | 0.00 | 53 | 1018.9 |
| 20260506173122 | 61 | 57 | 5.0 | 7.0 | 0.00 | 0.00 | 0.00 | 53 | 1018.7 |
| 20260506172619 | 60 | 61 | 6.0 | 8.0 | 0.00 | 0.00 | 0.00 | 53 | 1018.7 |
| 20260506172115 | 60 | 82 | 4.0 | 9.0 | 0.00 | 0.00 | 0.00 | 53 | 1018.6 |
| 20260506171613 | 61 | 99 | 2.0 | 7.0 | 0.00 | 0.00 | 0.00 | 53 | 1018.5 |
| 20260506171110 | 59 | 83 | 3.0 | 6.0 | 0.00 | 0.00 | 0.00 | 55 | 1018.8 |
| 20260506170607 | 60 | 4 | 3.0 | 10.0 | 0.00 | 0.00 | 0.00 | 53 | 1018.5 |
| 20260506170059 | 59 | 69 | 4.0 | 10.0 | 0.00 | 0.00 | 0.00 | 55 | 1018.7 |
| 20260506165558 | 59 | 67 | 2.0 | 9.0 | 0.00 | 0.00 | 0.00 | 55 | 1018.7 |
| 20260506165053 | 59 | 70 | 3.0 | 10.0 | 0.00 | 0.00 | 0.00 | 55 | 1018.8 |
| 20260506164551 | 59 | 47 | 7.0 | 9.0 | 0.00 | 0.00 | 0.00 | 54 | 1019.0 |
| 20260506164048 | 58 | 58 | 2.0 | 9.0 | 0.00 | 0.00 | 0.00 | 56 | 1018.9 |
| 20260506163543 | 58 | 70 | 2.0 | 9.0 | 0.00 | 0.00 | 0.00 | 56 | 1018.9 |
| 20260506163039 | 58 | 80 | 6.0 | 8.0 | 0.00 | 0.00 | 0.00 | 55 | 1019.0 |
| 20260506162535 | 58 | 124 | 3.0 | 9.0 | 0.00 | 0.00 | 0.00 | 55 | 1019.1 |
| 20260506162027 | 58 | 62 | 7.0 | 16.0 | 0.00 | 0.00 | 0.00 | 56 | 1018.8 |
| 20260506161525 | 57 | 77 | 9.0 | 13.0 | 0.00 | 0.00 | 0.00 | 56 | 1019.2 |
| 20260506161022 | 57 | 97 | 5.0 | 8.0 | 0.00 | 0.00 | 0.00 | 57 | 1019.0 |
| 20260506160520 | 57 | 48 | 3.0 | 14.0 | 0.00 | 0.00 | 0.00 | 56 | 1018.6 |
| 20260506160016 | 56 | 38 | 4.0 | 7.0 | 0.00 | 0.00 | 0.00 | 57 | 1018.6 |
| 20260506155514 | 56 | 66 | 6.0 | 13.0 | 0.00 | 0.00 | 0.00 | 58 | 1018.9 |
| 20260506153646 | 55 | 90 | 3.0 | 10.0 | 0.00 | 0.00 | 0.00 | 60 | 1018.5 |
| 20260506153143 | 55 | 81 | 7.0 | 13.0 | 0.00 | 0.00 | 0.00 | 60 | 1018.7 |
| 20260506152640 | 55 | 64 | 6.0 | 9.0 | 0.00 | 0.00 | 0.00 | 61 | 1018.9 |
| 20260506152138 | 55 | 26 | 8.0 | 10.0 | 0.00 | 0.00 | 0.00 | 63 | 1018.6 |
| 20260506151636 | 55 | 72 | 5.0 | 8.0 | 0.00 | 0.00 | 0.00 | 63 | 1018.6 |
| 20260506151132 | 55 | 102 | 4.0 | 9.0 | 0.00 | 0.00 | 0.00 | 63 | 1018.8 |
| 20260506150630 | 53 | 75 | 7.0 | 16.0 | 0.00 | 0.00 | 0.00 | 65 | 1018.7 |
| 20260506150126 | 53 | 56 | 3.0 | 10.0 | 0.00 | 0.00 | 0.00 | 67 | 1018.6 |
| 20260506145623 | 53 | 53 | 4.0 | 9.0 | 0.00 | 0.00 | 0.00 | 69 | 1018.6 |
| 20260506145120 | 52 | 80 | 6.0 | 10.0 | 0.00 | 0.00 | 0.00 | 70 | 1018.4 |
| 20260506144618 | 52 | 43 | 4.0 | 7.0 | 0.00 | 0.00 | 0.00 | 72 | 1018.4 |
| 20260506144114 | 51 | 63 | 7.0 | 11.0 | 0.00 | 0.00 | 0.00 | 73 | 1018.1 |
| 20260506143612 | 51 | 51 | 6.0 | 8.0 | 0.00 | 0.00 | 0.00 | 74 | 1018.1 |
| 20260506143110 | 51 | 96 | 3.0 | 6.0 | 0.00 | 0.00 | 0.00 | 74 | 1018.2 |
| 20260506142608 | 51 | 75 | 5.0 | 8.0 | 0.00 | 0.00 | 0.00 | 74 | 1018.3 |
| 20260506142106 | 51 | 51 | 4.0 | 11.0 | 0.00 | 0.00 | 0.00 | 75 | 1018.1 |
| 20260506141603 | 50 | 103 | 3.0 | 10.0 | 0.00 | 0.00 | 0.00 | 75 | 1018.1 |
| 20260506141101 | 51 | 76 | 5.0 | 9.0 | 0.00 | 0.00 | 0.00 | 75 | 1018.2 |
| 20260506140558 | 51 | 287 | 3.0 | 6.0 | 0.00 | 0.00 | 0.00 | 75 | 1018.1 |
| 20260506140055 | 51 | 85 | 4.0 | 6.0 | 0.00 | 0.00 | 0.00 | 75 | 1018.1 |
| 20260506135552 | 50 | 91 | 2.0 | 10.0 | 0.00 | 0.00 | 0.00 | 76 | 1018.1 |
| 20260506135048 | 50 | 77 | 3.0 | 6.0 | 0.00 | 0.00 | 0.00 | 76 | 1018.3 |
| 20260506134545 | 50 | 68 | 3.0 | 6.0 | 0.00 | 0.00 | 0.00 | 77 | 1018.2 |
| 20260506134041 | 50 | 82 | 5.0 | 11.0 | 0.00 | 0.00 | 0.00 | 77 | 1018.5 |
| 20260506133538 | 50 | 112 | 5.0 | 11.0 | 0.00 | 0.00 | 0.00 | 78 | 1018.4 |
| 20260506133035 | 50 | 51 | 4.0 | 7.0 | 0.00 | 0.00 | 0.00 | 79 | 1018.5 |
| 20260506132532 | 49 | 34 | 4.0 | 7.0 | 0.00 | 0.00 | 0.00 | 79 | 1018.6 |
| 20260506132030 | 49 | 41 | 4.0 | 15.0 | 0.00 | 0.00 | 0.00 | 79 | 1018.5 |
| 20260506131527 | 49 | 40 | 2.0 | 9.0 | 0.00 | 0.00 | 0.00 | 80 | 1018.2 |
| 20260506131023 | 49 | 341 | 3.0 | 10.0 | 0.00 | 0.00 | 0.00 | 80 | 1018.2 |
| 20260506130520 | 49 | 69 | 1.0 | 3.0 | 0.00 | 0.00 | 0.00 | 80 | 1018.2 |
| 20260506130018 | 49 | 22 | 4.0 | 6.0 | 0.00 | 0.00 | 0.00 | 80 | 1018.2 |
| 20260506125516 | 49 | 330 | 4.0 | 7.0 | 0.00 | 0.00 | 0.00 | 81 | 1018.2 |
| 20260506125013 | 49 | 33 | 2.0 | 4.0 | 0.00 | 0.00 | 0.00 | 81 | 1018.3 |
| 20260506124511 | 49 | 69 | 3.0 | 6.0 | 0.00 | 0.00 | 0.00 | 81 | 1018.2 |
| 20260506124009 | 49 | 36 | 2.0 | 7.0 | 0.00 | 0.00 | 0.00 | 81 | 1018.0 |
| 20260506123506 | 49 | 50 | 4.0 | 7.0 | 0.00 | 0.00 | 0.00 | 82 | 1017.9 |
| 20260506123004 | 48 | 34 | 4.0 | 7.0 | 0.00 | 0.00 | 0.00 | 82 | 1017.4 |
| 20260506122500 | 49 | 104 | 5.0 | 8.0 | 0.00 | 0.00 | 0.00 | 82 | 1017.7 |
| 20260506121959 | 48 | 53 | 1.0 | 6.0 | 0.00 | 0.00 | 0.00 | 82 | 1017.4 |
| 20260506121455 | 48 | 62 | 2.0 | 7.0 | 0.00 | 0.00 | 0.00 | 82 | 1017.4 |
| 20260506120952 | 48 | 68 | 2.0 | 6.0 | 0.00 | 0.00 | 0.00 | 82 | 1017.0 |
| 20260506120450 | 48 | 51 | 3.0 | 4.0 | 0.00 | 0.00 | 0.00 | 82 | 1017.0 |
| 20260506115947 | 48 | 26 | 4.0 | 8.0 | 0.00 | 0.00 | 0.00 | 82 | 1017.1 |
| 20260506115445 | 48 | 18 | 3.0 | 9.0 | 0.00 | 0.00 | 0.00 | 82 | 1017.2 |
| 20260506114943 | 48 | 60 | 3.0 | 7.0 | 0.00 | 0.00 | 0.00 | 82 | 1016.8 |
| 20260506114440 | 48 | 4 | 1.0 | 4.0 | 0.00 | 0.00 | 0.00 | 82 | 1017.1 |
| 20260506113939 | 48 | 86 | 2.0 | 3.0 | 0.00 | 0.00 | 0.00 | 82 | 1017.0 |
| 20260506113436 | 48 | 351 | 1.0 | 3.0 | 0.00 | 0.00 | 0.00 | 82 | 1016.9 |
| 20260506112932 | 48 | 58 | 1.0 | 6.0 | 0.00 | 0.00 | 0.00 | 82 | 1016.8 |
| 20260506112430 | 48 | 61 | 1.0 | 6.0 | 0.00 | 0.00 | 0.00 | 82 | 1016.8 |
| 20260506111927 | 48 | 71 | 1.0 | 6.0 | 0.00 | 0.00 | 0.00 | 82 | 1016.6 |
| 20260506111425 | 48 | 74 | 1.0 | 4.0 | 0.00 | 0.00 | 0.00 | 82 | 1016.9 |
| 20260506110922 | 48 | 25 | 0.0 | 2.0 | 0.00 | 0.00 | 0.00 | 81 | 1016.6 |
| 20260506110420 | 48 | 59 | 3.0 | 4.0 | 0.00 | 0.00 | 0.00 | 81 | 1016.6 |
| 20260506105916 | 48 | 63 | 0.0 | 6.0 | 0.00 | 0.00 | 0.00 | 81 | 1016.3 |
| 20260506105412 | 48 | 76 | 1.0 | 6.0 | 0.00 | 0.00 | 0.00 | 80 | 1016.6 |
| 20260506104910 | 49 | 16 | 3.0 | 4.0 | 0.00 | 0.00 | 0.00 | 80 | 1016.9 |
| 20260506104408 | 49 | 14 | 1.0 | 2.0 | 0.00 | 0.00 | 0.00 | 79 | 1017.2 |
| 20260506103906 | 49 | 114 | 1.0 | 2.0 | 0.00 | 0.00 | 0.00 | 79 | 1017.3 |
| 20260506103403 | 49 | 341 | 1.0 | 2.0 | 0.00 | 0.00 | 0.00 | 79 | 1017.5 |
| 20260506102859 | 49 | 93 | 0.0 | 4.0 | 0.00 | 0.00 | 0.00 | 79 | 1017.4 |
| 20260506102358 | 49 | 27 | 2.0 | 6.0 | 0.00 | 0.00 | 0.00 | 79 | 1016.8 |
| 20260506101854 | 49 | 97 | 1.0 | 6.0 | 0.00 | 0.00 | 0.00 | 78 | 1016.9 |
| 20260506101350 | 49 | 328 | 3.0 | 7.0 | 0.00 | 0.00 | 0.00 | 78 | 1017.1 |
| 20260506100848 | 49 | 72 | 2.0 | 3.0 | 0.00 | 0.00 | 0.00 | 79 | 1016.8 |
| 20260506100347 | 49 | 72 | 1.0 | 2.0 | 0.00 | 0.00 | 0.00 | 79 | 1017.0 |
| 20260506095844 | 49 | 80 | 0.0 | 6.0 | 0.00 | 0.00 | 0.00 | 79 | 1017.0 |
| 20260506095342 | 49 | 52 | 0.0 | 2.0 | 0.00 | 0.00 | 0.00 | 79 | 1016.8 |
| 20260506094838 | 49 | 22 | 2.0 | 3.0 | 0.00 | 0.00 | 0.00 | 78 | 1016.7 |
| 20260506094337 | 49 | 356 | 1.0 | 6.0 | 0.00 | 0.00 | 0.00 | 78 | 1016.5 |
| 20260506093835 | 49 | 47 | 0.0 | 2.0 | 0.00 | 0.00 | 0.00 | 78 | 1016.3 |
| 20260506093332 | 49 | 45 | 4.0 | 7.0 | 0.00 | 0.00 | 0.00 | 78 | 1016.0 |
| 20260506092830 | 49 | 35 | 1.0 | 3.0 | 0.00 | 0.00 | 0.00 | 78 | 1016.1 |
| 20260506092327 | 49 | 122 | 1.0 | 9.0 | 0.00 | 0.00 | 0.00 | 77 | 1016.0 |
| 20260506091824 | 49 | 29 | 1.0 | 6.0 | 0.00 | 0.00 | 0.00 | 77 | 1015.9 |
| 20260506091322 | 49 | 42 | 2.0 | 3.0 | 0.00 | 0.00 | 0.00 | 77 | 1015.8 |